Location: Bednik
(45.3500°N, 16.3833°E)
Time: 06:26:43
(UTC+00:00)

CENTAUR R/B - Pass Details

Date: 08 August 2020
Orbit: 756 x 1432 km, 63.4° (Epoch: 19 September)

Event Time Altitude Azimuth Distance (km) Brightness Sun altitude
Exits shadow 19:17:46 11° 101° (ESE) 2,583 4.2 -10.8°
Maximum altitude 19:17:52 11° 101° (E) 2,586 4.2 -10.9°
Drops below altitude 10° 19:19:16 10° 87° (E) 2,696 4.4 -11.1°
Sets 19:24:32 0° 54° (NE) 3,851 5.5 -11.8°
